Location: Unspecified
(48.8656°N, 0.0000°E)
Time: 17:02:20
(UTC+00:00)

Vanguard 1 Rocket - Pass Details

Date: 27 June 2019
Orbit: 652 x 4224 km, 34.3° (Epoch: 16 August)

Event Time Altitude Azimuth Distance (km) Brightness Sun altitude
Rises 13:48:29 0° 207° (SSW) 8,459 12.8 57.1°
Reaches altitude 10° 13:56:04 10° 198° (SSW) 7,309 12.6 56.1°
Maximum altitude 14:13:43 27° 151° (SSE) 5,010 11.5 53.8°
Drops below altitude 10° 14:26:05 10° 101° (ESE) 5,123 11.0 52.0°
Sets 14:30:04 0° 90° (E) 5,652 11.1 51.5°
